Preview of NWS' New Version of Forecast
This preview is not operational and should not be used for support decisions.

Regional Weather Roundup (RWR)

Issued by National Weather Service (NWS)

                            
000
ASUS45 KBOI 211310
RWRID 

IDAHO REGIONAL WEATHER ROUNDUP
NATIONAL WEATHER SERVICE BOISE ID
600 AM MST THU FEB 21 2019

NOTE: "FAIR" INDICATES FEW OR NO CLOUDS BELOW 12000 FEET
WITH NO SIGNIFICANT WEATHER AND/OR OBSTRUCTIONS TO VISIBILITY

IDZ012-014-211400-
SOUTHWEST IDAHO

  
CITY           SKY/WX    TMP DP  RH WIND       PRES   REMARKS
BOISE          FLURRIES  28  25  88 S6        29.78R WCI  22          
CALDWELL       FLURRIES  27  24  89 W6        29.81R WCI  20          
MOUNTAIN HOME  LGT SNOW  25  25 100 SE8       29.78R FOG     WCI  16  
$$

IDZ016-017-211400-
SOUTHCENTRAL IDAHO

  
CITY           SKY/WX    TMP DP  RH WIND       PRES   REMARKS
BURLEY         PTCLDY    15   9  76 E13       29.72R WCI   1          
JEROME         MOCLDY    16  10  77 E18       29.73R WCI   0          
TWIN FALLS     CLOUDY    18  13  80 E22G29    29.72R WCI   1          
$$

IDZ019>023-211400-
SOUTHEAST IDAHO

  
CITY           SKY/WX    TMP DP  RH WIND       PRES   REMARKS
IDAHO FALLS    CLEAR      2  -2  83 N7        29.76R WCI -11          
POCATELLO      PTCLDY     7   3  84 N6        29.74R WCI  -3          
REXBURG        CLEAR      2  -3  80 NE6       29.76R WCI  -9          
$$

IDZ006-010-011-018-031-032-211400-
CENTRAL IDAHO MOUNTAINS

  
CITY           SKY/WX    TMP DP  RH WIND       PRES   REMARKS
MCCALL         CLOUDY     6   2  83 CALM      29.68R                  
HAILEY         CLEAR     10   5  79 NW10      29.71R WCI  -3          
STANLEY          N/A     -3  -8  79 CALM      29.66R                  
SALMON         CLOUDY    18  11  74 N7        29.84R WCI   9          
CHALLIS        CLOUDY    12   8  84 S3        29.74R                  
$$

IDZ002-004-006-007-026-211400-
NORTHERN IDAHO

  
CITY           SKY/WX    TMP DP  RH WIND       PRES   REMARKS
LEWISTON       LGT SNOW  26  23  88 SE3       29.98R FOG              
LOWELL         NOT AVBL                                               
COEUR D'ALENE  CLEAR     16  13  88 N14       29.98R WCI   2          
MULLAN PASS    CLEAR      8   2  76 VRB6      29.76R WCI  -2          
$$